Погода в Чиканне

Мексика     18°30′45″N   89°27′46″W
темп.,
°C
ветер,
м/с
пор.,
м/с
влажн.,
%
обл.,
%
осадки,
мм/ч
давл.,
гПа
погр.,
м
18 апреля, вс
вс1801:00+24вюв3119492 0.0 1009556
04:00+24юв279396 0.1 1009424
07:00+23юв149833 0.1 1011148
10:00+31ю12502 0.0 10121109
13:00+38ю113245 0.0 10092576
16:00+27с1473100 0.4 1008141
19:00+28сз2568100 0.8 1009303
22:00+21св2798100 2.7 1013188
19 апреля, пн
пн1901:00+22ссв009828 2.9 101221
04:00+21з149931 0.1 1011121
07:00+21з1410058 0.1 1013164
10:00+27з237029 0.0 1014825
13:00+34зсз124188 0.0 10112215
16:00+31сз234986 0.0 1009621
19:00+29ссз255661 0.0 1009205
22:00+24с127859 0.0 101261
20 апреля, вт
вт2001:00+24с148367 0.0 1012218
04:00+22в119592 0.0 101141
07:00+22вюв149717 0.0 1012121
10:00+31юв225340 0.0 10131096
13:00+36вюв213691 0.0 10112588
16:00+29в2558100 0.5 1010361
19:00+27в277489 0.8 1010334
22:00+24вюв2689100 1.9 1013253
21 апреля, ср
ср2101:00+22ю0199100 3.4 101518
04:00+22в15100100 0.1 1013168
07:00+22в1410045 0.1 1014132
10:00+27в127943 0.7 1016723
13:00+31в235627 2.4 10141552
16:00+32вюв434615 0.4 10121835
19:00+26вюв14775 1.2 1013292
22:00+22в1796100 2.3 1015253
22 апреля, чт
чт2201:00+22вюв189997 3.6 1015354
04:00+22вюв299982 0.1 1013462
07:00+22вюв2998100 0.1 1015448
10:00+27вюв356469 0.0 10161131
13:00+32вюв353688 0.0 10142108
16:00+33в453199 0.0 10122349
19:00+27вюв3851100 0.0 1013717
22:00+22вюв31077100 0.0 1016432